Highgate, VT

3:40 AM EST on December 06, 2019 (GMT -0500)
Franklin County State

Weather History for KFSO - June, 2019

Change the Weather History Date:

Thursday, June 13, 2019

  Actual Average (KPBG) Record (KPBG)
Temperature  
Mean Temperature 62 °F -  
Max Temperature 68 °F 75 °F 92 °F (1949)
Min Temperature 56 °F 54 °F 43 °F (1963)
Degree Days  
Heating Degree Days 3    
Growing Degree Days 12 (Base 50)    
Moisture  
Dew Point 48 °F    
Average Humidity 58    
Maximum Humidity 92    
Minimum Humidity 38    
Precipitation  
Precipitation 0.00 in - - ()
Sea Level Pressure  
Sea Level Pressure 29.87 in    
Wind  
Wind Speed 8 mph (SSE)    
Max Wind Speed 20 mph    
Max Gust Speed 26 mph    
Visibility 10 miles    
Events Rain    
Averages and records for this station are not official NWS values.
T = Trace of Precipitation, MM = Missing Value Source: NWS Daily Summary

Daily Weather History Graph

Daily Weather History Graph

Search for Another Location

Airport or City:

Astronomy

Jun. 13, 2019 Rise Set
Actual Time 5:05 AM EDT 8:39 PM EDT
Civil Twilight 4:28 AM EDT 9:16 PM EDT
Nautical Twilight 3:38 AM EDT 10:06 PM EDT
Astronomical Twilight 2:34 AM EDT 11:11 PM EDT
Moon 4:40 PM EDT (6/13) 3:01 AM EDT (6/13)
Length of Visible Light 16h 48m
Length of Day
15h 34m
Waxing Gibbous, 85% of the Moon is Illuminated
Jun 13
Waxing Gibbous
Jun 17
Full
Jun 25
Last Quarter
Jul 2
New
Jul 9
First Quarter

Hourly Weather History & Observations

Time (EDT) Temp. Dew Point Humidity Pressure Visibility Wind Dir Wind Speed Gust Speed Precip Events Conditions
12:15 AM 65.1 °F 48.6 °F 55% 30.02 in 10.0 mi ESE 4.6 mph - N/A   Clear
12:36 AM 63.5 °F 50.0 °F 61% 30.02 in 10.0 mi SSE 3.5 mph - N/A   Clear
12:56 AM 64.2 °F 49.1 °F 58% 30.02 in 10.0 mi SSE 5.8 mph - N/A   Clear
1:16 AM 68.0 °F 47.5 °F 48% 30.01 in 10.0 mi South 5.8 mph - N/A   Clear
1:35 AM 67.8 °F 48.2 °F 49% 30.00 in 10.0 mi South 4.6 mph - N/A   Clear
1:56 AM 68.4 °F 48.6 °F 49% 30.00 in 10.0 mi South 5.8 mph - N/A   Clear
2:15 AM 68.4 °F 48.7 °F 49% 30.00 in 10.0 mi South 6.9 mph - N/A   Clear
2:36 AM 68.2 °F 48.9 °F 50% 30.00 in 10.0 mi South 6.9 mph - N/A   Clear
2:55 AM 68.0 °F 49.3 °F 51% 29.99 in 10.0 mi South 9.2 mph - N/A   Clear
3:15 AM 68.0 °F 49.5 °F 51% 29.98 in 10.0 mi South 6.9 mph - N/A   Clear
3:35 AM 67.1 °F 50.0 °F 54% 29.98 in 10.0 mi SSE 8.1 mph - N/A   Clear
3:56 AM 66.4 °F 49.6 °F 55% 29.97 in 10.0 mi SSE 8.1 mph - N/A   Clear
4:15 AM 65.8 °F 49.3 °F 55% 29.97 in 10.0 mi SSE 10.4 mph - N/A   Clear
4:35 AM 65.8 °F 48.7 °F 54% 29.97 in 10.0 mi SSE 9.2 mph - N/A   Clear
4:55 AM 66.2 °F 48.0 °F 52% 29.98 in 10.0 mi South 9.2 mph 16.1 mph N/A   Clear
5:15 AM 65.3 °F 48.0 °F 54% 29.97 in 10.0 mi South 8.1 mph - N/A   Clear
5:35 AM 65.3 °F 47.7 °F 53% 29.97 in 10.0 mi South 6.9 mph - N/A   Clear
5:56 AM 65.1 °F 47.5 °F 53% 29.97 in 10.0 mi South 6.9 mph 16.1 mph N/A   Clear
6:15 AM 65.1 °F 47.1 °F 52% 29.97 in 10.0 mi South 6.9 mph - N/A   Clear
6:36 AM 65.1 °F 47.3 °F 52% 29.97 in 10.0 mi South 8.1 mph - N/A   Clear
6:55 AM 65.3 °F 46.9 °F 51% 29.97 in 10.0 mi South 10.4 mph 17.3 mph N/A   Clear
7:15 AM 65.1 °F 46.8 °F 51% 29.96 in 10.0 mi SSE 10.4 mph 16.1 mph N/A   Clear
7:36 AM 64.9 °F 49.6 °F 58% 29.95 in 10.0 mi SSE 6.9 mph - N/A   Clear
7:55 AM 65.3 °F 51.1 °F 60% 29.96 in 10.0 mi SE 8.1 mph - N/A   Clear
8:15 AM 65.3 °F 52.0 °F 62% 29.95 in 10.0 mi SE 6.9 mph - N/A   Clear
8:35 AM 65.3 °F 52.7 °F 64% 29.95 in 10.0 mi SSE 4.6 mph - N/A   Clear
8:56 AM 65.8 °F 52.9 °F 63% 29.94 in 10.0 mi SE 5.8 mph - N/A   Clear
9:15 AM 66.4 °F 51.8 °F 59% 29.94 in 10.0 mi SSE 9.2 mph - N/A   Clear
9:35 AM 66.7 °F 46.0 °F 47% 29.92 in 10.0 mi SSE 9.2 mph - N/A   Clear
9:55 AM 66.7 °F 45.3 °F 46% 29.92 in 10.0 mi South 5.8 mph - N/A   Clear
10:15 AM 66.2 °F 42.1 °F 41% 29.93 in 10.0 mi South 12.7 mph 18.4 mph N/A   Clear
10:35 AM 66.2 °F 42.8 °F 43% 29.93 in 10.0 mi South 10.4 mph - N/A   Clear
10:55 AM 65.7 °F 41.7 °F 42% 29.92 in 10.0 mi SSE 11.5 mph 16.1 mph N/A   Clear
11:15 AM 65.5 °F 41.9 °F 42% 29.91 in 10.0 mi SE 11.5 mph 18.4 mph N/A   Clear
11:35 AM 65.3 °F 41.0 °F 41% 29.90 in 10.0 mi SSE 13.8 mph - N/A   Clear
11:56 AM 65.3 °F 39.0 °F 38% 29.90 in 10.0 mi South 9.2 mph 23.0 mph N/A   Clear
12:15 PM 65.7 °F 41.5 °F 41% 29.90 in 10.0 mi SSE 8.1 mph - N/A   Scattered Clouds
12:35 PM 66.2 °F 42.8 °F 43% 29.89 in 10.0 mi SE 5.8 mph - N/A   Mostly Cloudy
12:55 PM 66.2 °F 41.7 °F 41% 29.88 in 10.0 mi SSE 10.4 mph 19.6 mph N/A   Mostly Cloudy
1:15 PM 66.2 °F 42.1 °F 41% 29.87 in 10.0 mi SE 15.0 mph 19.6 mph N/A   Scattered Clouds
1:35 PM 64.8 °F 43.9 °F 47% 29.87 in 10.0 mi SE 15.0 mph 21.9 mph N/A   Light Drizzle
1:56 PM 63.0 °F 45.7 °F 53% 29.86 in 10.0 mi SE 19.6 mph 26.5 mph N/A   Mostly Cloudy
2:15 PM 62.8 °F 46.2 °F 55% 29.85 in 10.0 mi SSE 15.0 mph 21.9 mph N/A   Mostly Cloudy
2:36 PM 63.7 °F 47.5 °F 56% 29.85 in 10.0 mi SE 15.0 mph 25.3 mph N/A   Scattered Clouds
2:55 PM 63.7 °F 46.0 °F 53% 29.85 in 10.0 mi SE 19.6 mph 26.5 mph N/A   Mostly Cloudy
3:15 PM 62.6 °F 46.2 °F 55% 29.83 in 10.0 mi SE 18.4 mph 25.3 mph N/A   Overcast
3:35 PM 62.1 °F 45.9 °F 55% 29.82 in 10.0 mi SE 18.4 mph 26.5 mph N/A   Overcast
3:56 PM 61.3 °F 45.9 °F 57% 29.81 in 10.0 mi SSE 12.7 mph 20.7 mph N/A   Overcast
4:15 PM 63.1 °F 47.3 °F 56% 29.80 in 10.0 mi SSE 9.2 mph - N/A   Overcast
4:35 PM 63.5 °F 47.3 °F 56% 29.79 in 10.0 mi SSE 9.2 mph - N/A   Overcast
4:56 PM 64.0 °F 47.5 °F 55% 29.77 in 10.0 mi SE 10.4 mph - N/A   Overcast
5:15 PM 63.5 °F 47.5 °F 56% 29.76 in 10.0 mi ESE 9.2 mph - N/A   Overcast
5:36 PM 63.1 °F 47.5 °F 57% 29.76 in 10.0 mi SE 10.4 mph - N/A   Overcast
5:55 PM 62.8 °F 48.0 °F 59% 29.75 in 10.0 mi ESE 6.9 mph - N/A   Overcast
6:15 PM 62.4 °F 48.2 °F 60% 29.75 in 10.0 mi SE 10.4 mph - N/A   Overcast
6:35 PM 61.9 °F 48.4 °F 61% 29.75 in 10.0 mi ESE 6.9 mph - N/A   Overcast
6:56 PM 61.7 °F 48.7 °F 62% 29.75 in 10.0 mi ESE 6.9 mph - N/A   Overcast
7:15 PM 61.5 °F 48.9 °F 63% 29.75 in 10.0 mi ESE 5.8 mph - N/A   Overcast
7:36 PM 61.0 °F 48.7 °F 64% 29.74 in 10.0 mi ESE 5.8 mph - N/A   Overcast
7:55 PM 60.8 °F 49.3 °F 66% 29.74 in 10.0 mi ESE 4.6 mph - N/A Rain Light Rain
8:15 PM 60.3 °F 49.6 °F 68% 29.74 in 10.0 mi ESE 4.6 mph - N/A   Overcast
8:35 PM 59.9 °F 50.4 °F 71% 29.74 in 10.0 mi Calm Calm - N/A   Overcast
8:56 PM 59.2 °F 51.4 °F 75% 29.74 in 10.0 mi SE 4.6 mph - N/A   Overcast
9:16 PM 58.3 °F 52.9 °F 82% 29.72 in 7.0 mi SE 6.9 mph - N/A Rain Rain
9:36 PM 57.2 °F 53.8 °F 88% 29.73 in 10.0 mi SE 4.6 mph - N/A Rain Rain
9:55 PM 57.0 °F 54.0 °F 89% 29.72 in 10.0 mi SE 4.6 mph - N/A   Overcast
10:15 PM 56.8 °F 54.0 °F 90% 29.71 in 10.0 mi Calm Calm - N/A   Overcast
10:36 PM 56.7 °F 54.1 °F 91% 29.70 in 10.0 mi Calm Calm - N/A   Overcast
10:55 PM 56.5 °F 54.3 °F 92% 29.70 in 10.0 mi SSE 4.6 mph - N/A   Overcast
11:16 PM 56.5 °F 54.0 °F 91% 29.69 in 10.0 mi ESE 3.5 mph - N/A   Overcast
11:35 PM 56.3 °F 54.0 °F 92% 29.68 in 10.0 mi SE 3.5 mph - N/A   Overcast
11:56 PM 56.7 °F 54.5 °F 92% 29.68 in 10.0 mi Calm Calm - N/A   Overcast